STARLINK-5755, 55600

Orbit data source: Space-Track

STARLINK-5755, 55600 is a payload satellite owned by SpaceX/Seattle (US) in LEO that was launched on Sun, 12 Feb 2023 UTC via an FALCON 9 launch vehicle from the Air Force Eastern Test Range (AFETR). Payload-class satellites include a variety of spacecraft equipped with specific instruments for various scientific and technological missions. These include communications satellites like Starlink; space stations such as the ISS; scientific satellites like the Hubble; Earth observation satellites from companies like Planet Labs, Umbra, and HawkEye 360; GPS; miniature CubeSats for education and research; and military/defense satellites.

Loading next visibility...
Identifier
55600, 2023-020AH
Orbit
LEO
Country
Flag of USUS
Related business
Manufacturer
SpaceX/Seattle
Mission
Operational Commercial Communications
Bus & Motor
STARLINK, Unknown motor
Mass
305 kg wet, ~290 kg dry
Launch date (UTC)
2023-02-12 (4 years ago)
Launch vehicle
FALCON 9
Launch site
Air Force Eastern Test Range (AFETR)
Object type
Payload
Rocket body
Debris
Shape & HBR
Box + 1 Pan, 10.1 m
Radar Cross Section
13.562 m², Large (>1 m²)

Expand to show TLE details & history
Last TLE update: 22 hours ago

TLE from 22 hours ago
0 STARLINK-5755
1 55600U 23020AH  26263.49519308  .00000167  00000-0  15607-4 0  9998
2 55600  43.0033 333.9568 0001079 271.9615  88.1113 15.27575006198835
Epoch: 2026-09-20T11:53Z
TLE epoch observation values (Epoch: 2026-09-20T11:53:04.682Z)
Latitude
-0.00001°
Longitude
156.29873°
Altitude
482.816 km
Speed
7.626 km/s
True Right ascension
22h 15m 49s
True Declination
0° 00' 00"
Sunlit
Object was in full shadow at epoch
Visualization orbit readout
Latitude
Unknown
Longitude
Unknown
Altitude
Unknown
Speed
Unknown
Apparent Right ascension
Unknown
Apparent Declination
Unknown
Sunlit
N/A
Visualization observer readout
Local Sidereal Time
03:11:40
Azimuth
Unknown
Elevation
Unknown
Doppler factor
Unknown
Orbital elements
Apogee altitude
485.749 km
Perigee altitude
484.268 km
Semi-major axis
6,863.146 km
Eccentricity
0.00011
Inclination
43.0033°
RAAN
333.9568°
Arg. of periapsis
271.9615°
True anomaly
88.12366°
Mean anomaly
88.1113°
Eccentric anomaly
88.11748°
Mean motion
3.81732 °/min
Orbital period
94.31 mins
BSTAR
0.000015607
Loading maneuver chart data...
Computing Atmospheric mass density...
Loading historical data...
Loading historical data...
Loading historical data...
Loading historical data...
Loading historical data...
Loading historical data...
Loading historical data...

Documentation

Showing up to 5 results
|